When you browse on this site, cookies collect data to enhance your experience and personalize the content and advertising you see.
Visit our Privacy Policy to learn more. By continuing to use the site, you agree to this use of cookies and data.
  • In Hungary
  • List of Countries
  • For 7 days
  • Water Temperature
  • Weather Map
  • News
  • Weather Widgets
  • user-avatar
    Login

    Hourly Weather Cape Breton Island

    Today, 20 November, Wednesday

    Time Temperature Precipitation Wind Pressure Humidity
    00:00 +1°C° 0 mm 3 mps 721 mmHg 94%
    01:00 +2°C° 0 mm 2 mps 722 mmHg 95%
    02:00 +2°C° 0 mm 2 mps 722 mmHg 95%
    03:00 +2°C° 0 mm 2 mps 722 mmHg 95%
    04:00 +1°C° 0 mm 2 mps 722 mmHg 95%
    05:00 +1°C° 0 mm 2 mps 722 mmHg 94%
    06:00 +1°C° 0 mm 2 mps 723 mmHg 94%
    07:00 +1°C° 0 mm 2 mps 723 mmHg 94%
    08:00 +1°C° 0 mm 2 mps 723 mmHg 94%
    09:00 +1°C° 0 mm 2 mps 723 mmHg 90%
    10:00 +1°C° 0 mm 3 mps 723 mmHg 87%
    11:00 +2°C° 0 mm 3 mps 723 mmHg 83%
    12:00 0°C° 0 mm 4 mps 722 mmHg 83%
    13:00 0°C° 0 mm 4 mps 722 mmHg 82%
    14:00 0°C° 0 mm 5 mps 721 mmHg 81%
    15:00 0°C° 0 mm 5 mps 721 mmHg 84%
    16:00 0°C° 0 mm 5 mps 721 mmHg 86%
    17:00 0°C° 0 mm 5 mps 720 mmHg 88%
    18:00 -1°C° 0 mm 6 mps 720 mmHg 88%
    19:00 -1°C° 0 mm 6 mps 720 mmHg 87%
    20:00 -1°C° 0 mm 6 mps 720 mmHg 87%
    21:00 +1°C° 0 mm 6 mps 720 mmHg 87%
    22:00 +1°C° 0 mm 6 mps 719 mmHg 88%
    23:00 +1°C° 0 mm 6 mps 719 mmHg 88%

    Tomorrow, 21 November, Thursday

    Time Temperature Precipitation Wind Pressure Humidity
    00:00 0°C° 0.6 mm 7 mps 719 mmHg 90%
    01:00 -1°C° 0.6 mm 7 mps 718 mmHg 91%
    02:00 -1°C° 0.6 mm 8 mps 718 mmHg 93%
    03:00 -1°C° 1 mm 8 mps 718 mmHg 93%
    04:00 -1°C° 1 mm 8 mps 718 mmHg 94%
    05:00 -2°C° 1 mm 8 mps 718 mmHg 94%
    06:00 -2°C° 1.1 mm 7 mps 718 mmHg 94%
    07:00 -2°C° 1.1 mm 7 mps 718 mmHg 95%
    08:00 -2°C° 1.1 mm 7 mps 718 mmHg 95%
    09:00 -2°C° 1.1 mm 7 mps 717 mmHg 95%
    10:00 -2°C° 1.1 mm 7 mps 717 mmHg 95%
    11:00 -2°C° 1.1 mm 7 mps 717 mmHg 96%
    12:00 -2°C° 0.7 mm 7 mps 717 mmHg 95%
    13:00 -2°C° 0.7 mm 6 mps 716 mmHg 95%
    14:00 -2°C° 0.7 mm 6 mps 716 mmHg 95%
    15:00 -2°C° 0.1 mm 6 mps 716 mmHg 94%
    16:00 0°C° 0.1 mm 5 mps 716 mmHg 92%
    17:00 0°C° 0.1 mm 5 mps 717 mmHg 91%
    18:00 0°C° 0 mm 5 mps 717 mmHg 91%
    19:00 -1°C° 0 mm 5 mps 717 mmHg 91%
    20:00 -1°C° 0 mm 5 mps 718 mmHg 91%
    21:00 -1°C° 0 mm 5 mps 718 mmHg 90%
    22:00 -1°C° 0 mm 5 mps 718 mmHg 90%
    23:00 -1°C° 0 mm 5 mps 718 mmHg 89%

    Day after tomorrow, 22 November, Friday

    Time Temperature Precipitation Wind Pressure Humidity
    00:00 -1°C° 0 mm 5 mps 718 mmHg 88%
    01:00 -1°C° 0 mm 5 mps 718 mmHg 88%
    02:00 -1°C° 0 mm 5 mps 718 mmHg 87%
    03:00 -1°C° 0 mm 5 mps 718 mmHg 87%
    04:00 -1°C° 0 mm 5 mps 718 mmHg 87%
    05:00 -1°C° 0 mm 5 mps 718 mmHg 87%
    06:00 -2°C° 0 mm 4 mps 718 mmHg 87%
    07:00 -2°C° 0 mm 4 mps 718 mmHg 87%
    08:00 -1°C° 0 mm 3 mps 718 mmHg 88%
    09:00 -1°C° 0 mm 3 mps 718 mmHg 84%
    10:00 0°C° 0 mm 3 mps 718 mmHg 81%
    11:00 0°C° 0 mm 3 mps 718 mmHg 78%
    12:00 0°C° 0 mm 3 mps 718 mmHg 78%
    13:00 +1°C° 0 mm 2 mps 717 mmHg 78%
    14:00 +1°C° 0 mm 2 mps 717 mmHg 78%
    15:00 -1°C° 0 mm 2 mps 717 mmHg 82%
    16:00 -1°C° 0 mm 2 mps 716 mmHg 85%
    17:00 0°C° 0 mm 1 mps 716 mmHg 89%
    18:00 -2°C° 0 mm 2 mps 715 mmHg 88%
    19:00 -1°C° 0 mm 2 mps 715 mmHg 88%
    20:00 -1°C° 0 mm 3 mps 714 mmHg 88%
    21:00 -1°C° 0.4 mm 4 mps 713 mmHg 90%
    22:00 0°C° 0.4 mm 4 mps 711 mmHg 93%
    23:00 0°C° 0.4 mm 5 mps 710 mmHg 95%

    23 November, Saturday

    Time Temperature Precipitation Wind Pressure Humidity
    00:00 +1°C° 1.8 mm 5 mps 709 mmHg 95%
    01:00 +2°C° 1.8 mm 5 mps 708 mmHg 96%
    02:00 +3°C° 1.8 mm 5 mps 707 mmHg 96%
    03:00 +2°C° 0.7 mm 6 mps 706 mmHg 93%
    04:00 +2°C° 0.7 mm 6 mps 706 mmHg 91%
    05:00 +2°C° 0.7 mm 7 mps 705 mmHg 88%
    06:00 -1°C° 0.2 mm 7 mps 705 mmHg 87%
    07:00 -3°C° 0.2 mm 7 mps 705 mmHg 86%
    08:00 -6°C° 0.2 mm 7 mps 705 mmHg 86%
    09:00 -5°C° 0.2 mm 6 mps 705 mmHg 86%
    10:00 -5°C° 0.2 mm 6 mps 705 mmHg 86%
    11:00 -5°C° 0.2 mm 6 mps 705 mmHg 86%
    12:00 -4°C° 0.3 mm 5 mps 705 mmHg 87%
    13:00 -4°C° 0.3 mm 5 mps 705 mmHg 89%
    14:00 -4°C° 0.3 mm 5 mps 705 mmHg 90%
    15:00 -3°C° 0.7 mm 6 mps 705 mmHg 92%
    16:00 -2°C° 0.7 mm 7 mps 706 mmHg 94%
    17:00 -2°C° 0.7 mm 8 mps 706 mmHg 96%
    18:00 -2°C° 0.8 mm 8 mps 707 mmHg 95%
    19:00 -2°C° 0.8 mm 8 mps 708 mmHg 95%
    20:00 -2°C° 0.8 mm 8 mps 709 mmHg 94%
    21:00 -2°C° 0.5 mm 8 mps 710 mmHg 93%
    22:00 -2°C° 0.5 mm 8 mps 711 mmHg 92%
    23:00 -2°C° 0.5 mm 8 mps 712 mmHg 90%

    24 November, Sunday

    Time Temperature Precipitation Wind Pressure Humidity
    00:00 -2°C° 0.1 mm 8 mps 713 mmHg 89%
    01:00 -2°C° 0.1 mm 8 mps 713 mmHg 88%
    02:00 -2°C° 0.1 mm 7 mps 714 mmHg 86%
    03:00 -2°C° 0 mm 7 mps 715 mmHg 86%
    04:00 -2°C° 0 mm 7 mps 716 mmHg 86%
    05:00 -2°C° 0 mm 7 mps 717 mmHg 86%
    06:00 -2°C° 0 mm 6 mps 717 mmHg 87%
    07:00 -3°C° 0 mm 6 mps 718 mmHg 88%
    08:00 -2°C° 0 mm 5 mps 718 mmHg 88%
    09:00 -2°C° 0 mm 5 mps 719 mmHg 87%
    10:00 -1°C° 0 mm 5 mps 719 mmHg 86%
    11:00 -1°C° 0 mm 4 mps 720 mmHg 85%
    12:00 -1°C° 0 mm 4 mps 720 mmHg 85%
    13:00 -1°C° 0 mm 4 mps 720 mmHg 85%
    14:00 0°C° 0 mm 3 mps 720 mmHg 85%
    15:00 -1°C° 0 mm 2 mps 720 mmHg 87%
    16:00 +1°C° 0 mm 1 mps 720 mmHg 89%
    17:00 0°C° 0 mm 1 mps 720 mmHg 91%
    18:00 0°C° 0 mm 1 mps 720 mmHg 90%
    19:00 0°C° 0 mm 1 mps 720 mmHg 90%
    20:00 0°C° 0 mm 1 mps 720 mmHg 90%
    21:00 0°C° 0 mm 1 mps 720 mmHg 90%
    22:00 -2°C° 0 mm 2 mps 719 mmHg 90%
    23:00 -2°C° 0 mm 3 mps 719 mmHg 91%

    25 November, Monday

    Time Temperature Precipitation Wind Pressure Humidity
    00:00 -2°C° 0.1 mm 4 mps 718 mmHg 90%
    01:00 -2°C° 0.1 mm 5 mps 717 mmHg 90%
    02:00 -1°C° 0.1 mm 5 mps 717 mmHg 90%
    03:00 -2°C° 0.5 mm 6 mps 716 mmHg 92%
    04:00 -1°C° 0.5 mm 6 mps 715 mmHg 93%
    05:00 -1°C° 0.5 mm 6 mps 715 mmHg 94%
    06:00 +1°C° 0.1 mm 6 mps 714 mmHg 95%
    07:00 +2°C° 0.1 mm 5 mps 714 mmHg 96%
    08:00 +3°C° 0.1 mm 4 mps 714 mmHg 96%
    09:00 +4°C° 0 mm 4 mps 714 mmHg 93%
    10:00 +4°C° 0 mm 4 mps 714 mmHg 91%
    11:00 +4°C° 0 mm 4 mps 714 mmHg 88%
    12:00 +4°C° 0 mm 4 mps 714 mmHg 87%
    13:00 +5°C° 0 mm 4 mps 713 mmHg 86%
    14:00 +5°C° 0 mm 4 mps 713 mmHg 85%
    15:00 +4°C° 0 mm 4 mps 714 mmHg 86%
    16:00 +4°C° 0 mm 4 mps 714 mmHg 88%
    17:00 +4°C° 0 mm 3 mps 714 mmHg 90%
    18:00 +3°C° 0 mm 3 mps 714 mmHg 91%
    19:00 +3°C° 0 mm 3 mps 715 mmHg 93%
    20:00 +3°C° 0 mm 3 mps 715 mmHg 94%
    21:00 +3°C° 0.1 mm 4 mps 715 mmHg 94%
    22:00 +2°C° 0.1 mm 5 mps 715 mmHg 94%
    23:00 +1°C° 0.1 mm 5 mps 716 mmHg 93%
    Show more